Location: Great Snoring
(52.8667°N, 0.8833°E)
Time: 17:17:31
(UTC+00:00)

Cosmos 1980 Rocket - Pass Details

Date: 19 May 2025
Orbit: 829 x 847 km, 71.0° (Epoch: 13 June)

Event Time Altitude Azimuth Distance (km) Brightness Sun altitude
Rises 22:27:50 0° 324° (NW) 3,384 6.9 -14.8°
Reaches altitude 10° 22:30:25 10° 317° (NW) 2,447 5.7 -15.0°
Maximum altitude 22:35:30 37° 252° (WSW) 1,273 3.1 -15.2°
Enters shadow 22:39:03 18° 195° (SSW) 1,932 3.6 -15.4°
